| time (UTC) | temp C | wind direction | speed KPH | gust KPH | rain 1hr cm | rain 24hr cm | rain mn cm | humidity % | barometer mb |
| 20260906122759 | 22 | 106 | 0.0 | 0.0 | 0.00 | 0.00 | 0.00 | 93 | 1012.7 |
| 20260906122255 | 22 | 106 | 0.0 | 0.0 | 0.00 | 0.00 | 0.00 | 93 | 1012.6 |
| 20260906121752 | 21 | 105 | 0.0 | 0.0 | 0.00 | 0.00 | 0.00 | 93 | 1012.5 |
| 20260906121247 | 21 | 105 | 0.0 | 0.0 | 0.00 | 0.00 | 0.00 | 93 | 1012.4 |
| 20260906120743 | 21 | 105 | 0.0 | 0.0 | 0.00 | 0.00 | 0.00 | 93 | 1012.4 |
| 20260906120240 | 21 | 104 | 0.0 | 0.0 | 0.00 | 0.00 | 0.00 | 93 | 1012.3 |
| 20260906115735 | 21 | 104 | 0.0 | 0.0 | 0.00 | 0.00 | 0.00 | 93 | 1012.2 |
| 20260906115230 | 21 | 104 | 0.0 | 0.0 | 0.00 | 0.00 | 0.00 | 93 | 1012.0 |
| 20260906114729 | 21 | 104 | 0.0 | 0.0 | 0.00 | 0.00 | 0.00 | 93 | 1012.3 |
| 20260906114224 | 21 | 104 | 0.0 | 0.0 | 0.00 | 0.00 | 0.00 | 93 | 1012.2 |
| 20260906113720 | 21 | 104 | 0.0 | 0.0 | 0.00 | 0.00 | 0.00 | 93 | 1012.0 |
| 20260906113219 | 21 | 104 | 0.0 | 0.0 | 0.00 | 0.00 | 0.00 | 93 | 1012.2 |
| 20260906112718 | 21 | 104 | 0.0 | 0.0 | 0.00 | 0.00 | 0.00 | 93 | 1012.1 |
| 20260906112216 | 21 | 104 | 0.0 | 0.0 | 0.00 | 0.00 | 0.00 | 93 | 1012.2 |
| 20260906111715 | 21 | 104 | 0.0 | 0.0 | 0.00 | 0.00 | 0.00 | 93 | 1012.2 |
| 20260906111209 | 21 | 104 | 0.0 | 0.0 | 0.00 | 0.00 | 0.00 | 93 | 1012.0 |
| 20260906110704 | 21 | 104 | 0.0 | 0.0 | 0.00 | 0.00 | 0.00 | 93 | 1012.0 |
| 20260906110159 | 21 | 104 | 0.0 | 0.0 | 0.00 | 0.00 | 0.00 | 93 | 1012.1 |
| 20260906105653 | 21 | 104 | 0.0 | 0.0 | 0.00 | 0.00 | 0.00 | 93 | 1012.1 |
| 20260906105149 | 21 | 104 | 0.0 | 0.0 | 0.00 | 0.00 | 0.00 | 93 | 1012.3 |
| 20260906104649 | 21 | 104 | 0.0 | 0.0 | 0.00 | 0.00 | 0.00 | 93 | 1012.1 |
| 20260906104143 | 21 | 104 | 0.0 | 0.0 | 0.00 | 0.00 | 0.00 | 93 | 1012.3 |
| 20260906103641 | 21 | 104 | 0.0 | 0.0 | 0.00 | 0.00 | 0.00 | 93 | 1012.1 |
| 20260906103136 | 21 | 104 | 0.0 | 0.0 | 0.00 | 0.00 | 0.00 | 93 | 1011.9 |
| 20260906102631 | 21 | 104 | 0.0 | 0.0 | 0.00 | 0.00 | 0.00 | 93 | 1011.7 |
| 20260906102126 | 21 | 103 | 0.0 | 0.0 | 0.00 | 0.00 | 0.00 | 93 | 1011.9 |
| 20260906101626 | 21 | 103 | 0.0 | 0.0 | 0.00 | 0.00 | 0.00 | 93 | 1011.9 |
| 20260906101126 | 21 | 103 | 0.0 | 0.0 | 0.00 | 0.00 | 0.00 | 93 | 1011.9 |
| 20260906100621 | 21 | 103 | 0.0 | 0.0 | 0.00 | 0.00 | 0.00 | 93 | 1011.9 |
| 20260906100121 | 21 | 105 | 0.0 | 0.0 | 0.00 | 0.00 | 0.00 | 93 | 1012.2 |
| 20260906095616 | 21 | 105 | 0.0 | 0.0 | 0.00 | 0.00 | 0.00 | 93 | 1012.2 |
| 20260906095112 | 21 | 105 | 0.0 | 0.0 | 0.00 | 0.00 | 0.00 | 93 | 1012.3 |
| 20260906094610 | 21 | 104 | 0.0 | 0.0 | 0.00 | 0.00 | 0.00 | 93 | 1012.2 |
| 20260906094106 | 21 | 104 | 0.0 | 0.0 | 0.00 | 0.00 | 0.00 | 93 | 1012.1 |
| 20260906093602 | 21 | 105 | 0.0 | 0.0 | 0.00 | 0.00 | 0.00 | 93 | 1012.2 |
| 20260906093057 | 21 | 104 | 0.0 | 0.0 | 0.00 | 0.00 | 0.00 | 93 | 1012.1 |
| 20260906092552 | 21 | 105 | 0.0 | 0.0 | 0.00 | 0.00 | 0.00 | 93 | 1012.2 |
| 20260906092047 | 21 | 105 | 0.0 | 0.0 | 0.00 | 0.00 | 0.00 | 93 | 1011.8 |
| 20260906091543 | 21 | 105 | 0.0 | 0.0 | 0.00 | 0.00 | 0.00 | 93 | 1012.0 |
| 20260906091039 | 21 | 105 | 0.0 | 0.0 | 0.00 | 0.00 | 0.00 | 93 | 1011.9 |
| 20260906090533 | 21 | 105 | 0.0 | 0.0 | 0.00 | 0.00 | 0.00 | 93 | 1012.0 |
| 20260906090029 | 21 | 104 | 0.0 | 0.0 | 0.00 | 0.00 | 0.00 | 93 | 1011.9 |
| 20260906085527 | 21 | 104 | 0.0 | 0.0 | 0.00 | 0.00 | 0.00 | 93 | 1011.9 |
| 20260906085027 | 21 | 104 | 0.0 | 0.0 | 0.00 | 0.00 | 0.00 | 93 | 1012.0 |
| 20260906084522 | 21 | 104 | 0.0 | 0.0 | 0.00 | 0.00 | 0.00 | 93 | 1012.0 |
| 20260906084020 | 21 | 104 | 0.0 | 0.0 | 0.00 | 0.00 | 0.00 | 93 | 1011.8 |
| 20260906083516 | 21 | 104 | 0.0 | 0.0 | 0.00 | 0.00 | 0.00 | 93 | 1011.9 |
| 20260906083016 | 21 | 104 | 0.0 | 0.0 | 0.00 | 0.00 | 0.00 | 93 | 1011.7 |
| 20260906082511 | 21 | 104 | 0.0 | 0.0 | 0.00 | 0.00 | 0.00 | 93 | 1011.6 |
| 20260906082007 | 21 | 104 | 0.0 | 0.0 | 0.00 | 0.00 | 0.00 | 93 | 1011.7 |
| 20260906081502 | 21 | 104 | 0.0 | 0.0 | 0.00 | 0.00 | 0.00 | 93 | 1011.8 |
| 20260906080958 | 21 | 104 | 0.0 | 0.0 | 0.00 | 0.00 | 0.00 | 93 | 1011.8 |
| 20260906080454 | 21 | 105 | 0.0 | 0.0 | 0.00 | 0.00 | 0.00 | 93 | 1011.8 |
| 20260906075949 | 21 | 105 | 0.0 | 0.0 | 0.00 | 0.00 | 0.00 | 93 | 1011.8 |
| 20260906075444 | 21 | 104 | 0.0 | 0.0 | 0.00 | 0.00 | 0.00 | 93 | 1011.9 |
| 20260906074939 | 21 | 96 | 0.0 | 0.0 | 0.00 | 0.00 | 0.00 | 93 | 1011.7 |
| 20260906074439 | 21 | 96 | 0.0 | 0.0 | 0.00 | 0.00 | 0.00 | 93 | 1011.8 |
| 20260906073937 | 21 | 96 | 0.0 | 0.0 | 0.00 | 0.00 | 0.00 | 93 | 1011.7 |
| 20260906073432 | 21 | 96 | 0.0 | 0.0 | 0.00 | 0.00 | 0.00 | 93 | 1011.6 |
| 20260906072929 | 21 | 96 | 0.0 | 0.0 | 0.00 | 0.00 | 0.00 | 93 | 1011.6 |
| 20260906072424 | 21 | 104 | 0.0 | 0.0 | 0.00 | 0.00 | 0.00 | 93 | 1011.6 |
| 20260906071920 | 21 | 104 | 0.0 | 0.0 | 0.00 | 0.00 | 0.00 | 93 | 1011.8 |
| 20260906071415 | 21 | 104 | 0.0 | 0.0 | 0.00 | 0.00 | 0.00 | 93 | 1011.8 |
| 20260906070911 | 21 | 104 | 0.0 | 0.0 | 0.00 | 0.00 | 0.00 | 93 | 1011.9 |
| 20260906070407 | 21 | 104 | 0.0 | 0.0 | 0.00 | 0.00 | 0.00 | 93 | 1011.8 |
| 20260906065903 | 21 | 104 | 0.0 | 0.0 | 0.00 | 0.00 | 0.00 | 93 | 1011.9 |
| 20260906065356 | 21 | 108 | 0.0 | 0.0 | 0.00 | 0.00 | 0.00 | 93 | 1011.7 |
| 20260906064853 | 21 | 108 | 0.0 | 0.0 | 0.00 | 0.00 | 0.00 | 93 | 1011.6 |
| 20260906064349 | 21 | 108 | 0.0 | 0.0 | 0.00 | 0.00 | 0.00 | 93 | 1011.8 |
| 20260906063848 | 21 | 101 | 0.0 | 0.0 | 0.00 | 0.00 | 0.00 | 93 | 1012.0 |
| 20260906063344 | 21 | 115 | 0.0 | 0.0 | 0.00 | 0.00 | 0.00 | 93 | 1012.1 |
| 20260906062839 | 21 | 115 | 0.0 | 0.0 | 0.00 | 0.00 | 0.00 | 93 | 1012.0 |
| 20260906062338 | 21 | 115 | 0.0 | 0.0 | 0.00 | 0.00 | 0.00 | 93 | 1012.0 |
| 20260906061833 | 21 | 102 | 0.0 | 0.0 | 0.00 | 0.00 | 0.00 | 93 | 1012.2 |
| 20260906061330 | 21 | 94 | 0.0 | 0.0 | 0.00 | 0.00 | 0.00 | 93 | 1012.1 |
| 20260906060824 | 21 | 94 | 0.0 | 0.0 | 0.00 | 0.00 | 0.00 | 93 | 1012.3 |
| 20260906060322 | 22 | 94 | 0.0 | 0.0 | 0.00 | 0.00 | 0.00 | 93 | 1012.5 |
| 20260906055818 | 22 | 94 | 0.0 | 0.0 | 0.00 | 0.00 | 0.00 | 93 | 1012.3 |
| 20260906055313 | 21 | 124 | 0.0 | 0.0 | 0.00 | 0.00 | 0.00 | 93 | 1012.3 |
| 20260906054809 | 21 | 124 | 0.0 | 0.0 | 0.00 | 0.00 | 0.00 | 93 | 1012.3 |
| 20260906054304 | 21 | 124 | 0.0 | 0.0 | 0.00 | 0.00 | 0.00 | 93 | 1012.3 |
| 20260906053800 | 21 | 124 | 0.0 | 0.0 | 0.00 | 0.00 | 0.00 | 93 | 1012.4 |
| 20260906053256 | 22 | 125 | 0.0 | 0.0 | 0.00 | 0.00 | 0.00 | 93 | 1012.2 |
| 20260906052750 | 21 | 125 | 0.0 | 0.0 | 0.00 | 0.00 | 0.00 | 93 | 1012.3 |
| 20260906052246 | 21 | 125 | 0.0 | 0.0 | 0.00 | 0.00 | 0.00 | 93 | 1012.5 |
| 20260906051743 | 22 | 125 | 0.0 | 0.0 | 0.00 | 0.00 | 0.00 | 93 | 1012.6 |
| 20260906051243 | 22 | 125 | 0.0 | 0.0 | 0.00 | 0.00 | 0.00 | 93 | 1012.6 |
| 20260906050738 | 21 | 125 | 0.0 | 0.0 | 0.00 | 0.00 | 0.00 | 93 | 1012.7 |
| 20260906050233 | 21 | 125 | 0.0 | 0.0 | 0.00 | 0.00 | 0.00 | 93 | 1012.7 |
| 20260906045732 | 22 | 125 | 0.0 | 0.0 | 0.00 | 0.00 | 0.00 | 93 | 1012.4 |
| 20260906045227 | 22 | 126 | 0.0 | 0.0 | 0.00 | 0.00 | 0.00 | 93 | 1012.4 |
| 20260906044723 | 22 | 126 | 0.0 | 0.0 | 0.00 | 0.00 | 0.00 | 93 | 1012.5 |
| 20260906044218 | 22 | 126 | 0.0 | 0.0 | 0.00 | 0.00 | 0.00 | 93 | 1012.5 |
| 20260906043714 | 21 | 127 | 0.0 | 0.0 | 0.00 | 0.00 | 0.00 | 93 | 1012.5 |
| 20260906043210 | 21 | 127 | 0.0 | 0.0 | 0.00 | 0.00 | 0.00 | 93 | 1012.6 |
| 20260906042709 | 21 | 126 | 0.0 | 0.0 | 0.00 | 0.00 | 0.00 | 93 | 1012.5 |
| 20260906042209 | 22 | 126 | 0.0 | 0.0 | 0.00 | 0.00 | 0.00 | 93 | 1012.5 |
| 20260906041704 | 22 | 126 | 0.0 | 0.0 | 0.00 | 0.00 | 0.00 | 93 | 1012.6 |
| 20260906041159 | 22 | 126 | 0.0 | 0.0 | 0.00 | 0.00 | 0.00 | 93 | 1012.5 |
| 20260906040655 | 22 | 126 | 0.0 | 0.0 | 0.00 | 0.00 | 0.00 | 93 | 1012.5 |
| 20260906040150 | 22 | 127 | 0.0 | 0.0 | 0.00 | 0.00 | 0.00 | 93 | 1012.3 |
| 20260906035645 | 22 | 127 | 0.0 | 0.0 | 0.00 | 0.91 | 0.91 | 93 | 1012.4 |
| 20260906035142 | 22 | 128 | 0.0 | 1.6 | 0.00 | 0.91 | 0.91 | 93 | 1012.4 |
| 20260906034636 | 22 | 127 | 0.0 | 0.0 | 0.00 | 0.91 | 0.91 | 93 | 1012.6 |
| 20260906034136 | 22 | 127 | 0.0 | 0.0 | 0.00 | 0.91 | 0.91 | 93 | 1012.6 |
| 20260906033631 | 22 | 123 | 0.0 | 0.0 | 0.00 | 0.91 | 0.91 | 93 | 1012.8 |
| 20260906033126 | 22 | 123 | 0.0 | 0.0 | 0.00 | 0.91 | 0.91 | 93 | 1012.6 |
| 20260906032623 | 22 | 123 | 0.0 | 0.0 | 0.00 | 0.91 | 0.91 | 93 | 1012.7 |
| 20260906032122 | 22 | 123 | 0.0 | 0.0 | 0.00 | 0.91 | 0.91 | 93 | 1012.9 |
| 20260906031618 | 22 | 123 | 0.0 | 0.0 | 0.00 | 0.91 | 0.91 | 93 | 1013.0 |
| 20260906031113 | 22 | 123 | 0.0 | 0.0 | 0.00 | 0.91 | 0.91 | 93 | 1013.0 |
| 20260906030612 | 22 | 122 | 0.0 | 0.0 | 0.00 | 0.91 | 0.91 | 93 | 1013.1 |
| 20260906030108 | 22 | 126 | 0.0 | 0.0 | 0.00 | 0.91 | 0.91 | 93 | 1013.0 |
| 20260906025607 | 22 | 157 | 0.0 | 0.0 | 0.00 | 0.91 | 0.91 | 93 | 1013.2 |
| 20260906025106 | 22 | 157 | 0.0 | 0.0 | 0.00 | 0.91 | 0.91 | 93 | 1013.2 |
| 20260906024601 | 22 | 157 | 0.0 | 0.0 | 0.00 | 0.91 | 0.91 | 93 | 1013.1 |
| 20260906024055 | 22 | 157 | 0.0 | 1.6 | 0.00 | 0.91 | 0.91 | 93 | 1013.2 |
| 20260906023551 | 22 | 157 | 0.0 | 0.0 | 0.00 | 0.91 | 0.91 | 93 | 1013.3 |
| 20260906023046 | 22 | 157 | 0.0 | 0.0 | 0.00 | 0.91 | 0.91 | 93 | 1013.4 |
| 20260906022541 | 22 | 157 | 0.0 | 0.0 | 0.00 | 0.91 | 0.91 | 93 | 1013.2 |
| 20260906022036 | 22 | 157 | 0.0 | 0.0 | 0.00 | 0.91 | 0.91 | 93 | 1013.3 |
| 20260906021532 | 22 | 157 | 0.0 | 0.0 | 0.00 | 0.91 | 0.91 | 93 | 1013.4 |
| 20260906021031 | 22 | 147 | 0.0 | 0.0 | 0.00 | 0.91 | 0.91 | 93 | 1013.4 |
| 20260906020530 | 22 | 147 | 0.0 | 0.0 | 0.00 | 0.91 | 0.91 | 93 | 1013.4 |
| 20260906020025 | 22 | 145 | 0.0 | 0.0 | 0.00 | 0.91 | 0.91 | 93 | 1013.3 |
| 20260906015524 | 22 | 157 | 0.0 | 0.0 | 0.00 | 0.91 | 0.91 | 93 | 1013.2 |
| 20260906015024 | 22 | 157 | 0.0 | 0.0 | 0.00 | 0.91 | 0.91 | 92 | 1012.9 |
| 20260906014519 | 22 | 157 | 0.0 | 1.6 | 0.00 | 0.91 | 0.91 | 92 | 1013.0 |
| 20260906014015 | 22 | 136 | 1.6 | 3.2 | 0.00 | 0.91 | 0.91 | 92 | 1013.2 |
| 20260906013510 | 22 | 159 | 0.0 | 0.0 | 0.00 | 0.91 | 0.91 | 92 | 1012.9 |
| 20260906013006 | 22 | 159 | 0.0 | 1.6 | 0.00 | 0.91 | 0.91 | 92 | 1012.9 |
| 20260906012501 | 22 | 134 | 0.0 | 0.0 | 0.00 | 0.91 | 0.91 | 92 | 1013.1 |
| 20260906011959 | 22 | 151 | 0.0 | 0.0 | 0.00 | 0.91 | 0.91 | 92 | 1013.0 |
| 20260906011456 | 22 | 135 | 0.0 | 0.0 | 0.00 | 0.91 | 0.91 | 92 | 1012.9 |
| 20260906010950 | 22 | 132 | 0.0 | 0.0 | 0.00 | 0.91 | 0.91 | 92 | 1012.7 |
| 20260906010446 | 22 | 158 | 0.0 | 0.0 | 0.00 | 0.91 | 0.91 | 92 | 1012.8 |
| 20260906005943 | 22 | 159 | 1.6 | 1.6 | 0.00 | 0.91 | 0.91 | 92 | 1012.6 |
| 20260906005441 | 22 | 147 | 0.0 | 0.0 | 0.00 | 0.91 | 0.91 | 92 | 1012.2 |
| 20260906004940 | 22 | 133 | 0.0 | 1.6 | 0.00 | 0.91 | 0.91 | 92 | 1012.1 |
| 20260906004434 | 22 | 118 | 1.6 | 1.6 | 0.00 | 0.91 | 0.91 | 92 | 1012.3 |
| 20260906003930 | 22 | 100 | 1.6 | 1.6 | 0.00 | 0.91 | 0.91 | 92 | 1012.3 |
| 20260906003425 | 22 | 92 | 3.2 | 3.2 | 0.00 | 0.91 | 0.91 | 92 | 1012.0 |
| 20260906002920 | 22 | 95 | 0.0 | 1.6 | 0.00 | 0.91 | 0.91 | 92 | 1012.0 |
| 20260906002420 | 22 | 162 | 0.0 | 1.6 | 0.00 | 0.91 | 0.91 | 92 | 1011.7 |
| 20260906001915 | 22 | 167 | 3.2 | 4.8 | 0.00 | 0.91 | 0.91 | 92 | 1011.8 |
| 20260906001411 | 22 | 155 | 0.0 | 1.6 | 0.00 | 0.91 | 0.91 | 92 | 1011.5 |
| 20260906000911 | 22 | 155 | 0.0 | 0.0 | 0.00 | 0.91 | 0.91 | 92 | 1011.7 |
| 20260906000406 | 22 | 157 | 4.8 | 4.8 | 0.00 | 0.91 | 0.91 | 92 | 1011.8 |
| 20260905235901 | 22 | 94 | 3.2 | 3.2 | 0.00 | 0.91 | 0.91 | 91 | 1011.2 |
| 20260905235355 | 22 | 73 | 3.2 | 3.2 | 0.00 | 0.91 | 0.91 | 91 | 1010.6 |
| 20260905234850 | 22 | 118 | 0.0 | 0.0 | 0.00 | 0.91 | 0.91 | 91 | 1010.0 |
| 20260905234345 | 22 | 118 | 0.0 | 0.0 | 0.00 | 0.91 | 0.91 | 91 | 1009.7 |
| 20260905233840 | 22 | 118 | 0.0 | 0.0 | 0.00 | 0.91 | 0.91 | 91 | 1009.5 |
| 20260905233335 | 22 | 118 | 1.6 | 1.6 | 0.00 | 0.91 | 0.91 | 91 | 1009.6 |
| 20260905232835 | 22 | 99 | 0.0 | 1.6 | 0.00 | 0.91 | 0.91 | 91 | 1009.8 |
| 20260905232331 | 22 | 97 | 0.0 | 1.6 | 0.00 | 0.91 | 0.91 | 90 | 1010.2 |
| 20260905231826 | 21 | 103 | 0.0 | 0.0 | 0.00 | 0.91 | 0.91 | 90 | 1010.6 |
| 20260905231321 | 21 | 99 | 0.0 | 3.2 | 0.00 | 0.91 | 0.91 | 90 | 1011.2 |
| 20260905230818 | 21 | 88 | 1.6 | 3.2 | 0.00 | 0.91 | 0.91 | 90 | 1011.5 |
| 20260905230316 | 22 | 92 | 0.0 | 11.3 | 0.13 | 0.91 | 0.91 | 90 | 1011.7 |
| 20260905225815 | 22 | 93 | 6.4 | 9.7 | 0.61 | 0.91 | 0.91 | 90 | 1011.8 |
| 20260905225310 | 23 | 95 | 4.8 | 14.5 | 3.84 | 0.84 | 0.84 | 89 | 1011.9 |
| 20260905224810 | 23 | 27 | 6.4 | 14.5 | 4.14 | 0.81 | 0.81 | 89 | 1012.2 |
| 20260905224306 | 24 | 28 | 11.3 | 20.9 | 3.48 | 0.58 | 0.58 | 88 | 1012.1 |
| 20260905223801 | 31 | 44 | 9.7 | 20.9 | 0.00 | 0.00 | 0.00 | 57 | 1011.8 |
| 20260905223258 | 31 | 44 | 9.7 | 20.9 | 0.00 | 0.00 | 0.00 | 57 | 1011.8 |
| 20260905222753 | 33 | 53 | 4.8 | 9.7 | 0.00 | 0.00 | 0.00 | 54 | 1011.1 |
| 20260905222252 | 36 | 27 | 8.0 | 11.3 | 0.00 | 0.00 | 0.00 | 47 | 1011.1 |
| 20260905221748 | 37 | 190 | 3.2 | 3.2 | 0.00 | 0.00 | 0.00 | 45 | 1010.1 |
| 20260905221245 | 36 | 178 | 1.6 | 3.2 | 0.00 | 0.00 | 0.00 | 44 | 1010.2 |
| 20260905220740 | 36 | 179 | 0.0 | 4.8 | 0.00 | 0.00 | 0.00 | 43 | 1010.4 |
| 20260905220236 | 37 | 178 | 1.6 | 1.6 | 0.00 | 0.00 | 0.00 | 43 | 1010.1 |
| 20260905215735 | 36 | 183 | 1.6 | 3.2 | 0.00 | 0.00 | 0.00 | 43 | 1010.2 |
| 20260905215231 | 37 | 187 | 1.6 | 3.2 | 0.00 | 0.00 | 0.00 | 45 | 1010.2 |
| 20260905214727 | 36 | 190 | 1.6 | 3.2 | 0.00 | 0.00 | 0.00 | 45 | 1009.8 |
| 20260905214222 | 36 | 186 | 1.6 | 4.8 | 0.00 | 0.00 | 0.00 | 44 | 1009.9 |
| 20260905213718 | 37 | 181 | 3.2 | 4.8 | 0.00 | 0.00 | 0.00 | 44 | 1010.0 |
| 20260905213214 | 37 | 187 | 0.0 | 3.2 | 0.00 | 0.00 | 0.00 | 43 | 1009.9 |
| 20260905212709 | 36 | 261 | 1.6 | 3.2 | 0.00 | 0.00 | 0.00 | 43 | 1009.8 |
| 20260905212208 | 36 | 129 | 3.2 | 9.7 | 0.00 | 0.00 | 0.00 | 45 | 1009.9 |
| 20260905211702 | 37 | 197 | 3.2 | 3.2 | 0.00 | 0.00 | 0.00 | 44 | 1010.0 |
| 20260905211158 | 36 | 105 | 1.6 | 4.8 | 0.00 | 0.00 | 0.00 | 44 | 1010.1 |
| 20260905210655 | 37 | 187 | 1.6 | 4.8 | 0.00 | 0.00 | 0.00 | 44 | 1010.0 |
| 20260905210154 | 37 | 190 | 1.6 | 4.8 | 0.00 | 0.00 | 0.00 | 44 | 1010.3 |
| 20260905205654 | 36 | 178 | 1.6 | 8.0 | 0.00 | 0.00 | 0.00 | 43 | 1010.3 |
| 20260905205153 | 36 | 214 | 3.2 | 9.7 | 0.00 | 0.00 | 0.00 | 45 | 1010.3 |
| 20260905204652 | 37 | 174 | 1.6 | 4.8 | 0.00 | 0.00 | 0.00 | 43 | 1010.4 |
| 20260905204148 | 37 | 212 | 4.8 | 4.8 | 0.00 | 0.00 | 0.00 | 43 | 1010.5 |
| 20260905203643 | 37 | 182 | 0.0 | 4.8 | 0.00 | 0.00 | 0.00 | 42 | 1010.8 |
| 20260905203139 | 37 | 88 | 1.6 | 3.2 | 0.00 | 0.00 | 0.00 | 44 | 1010.6 |
| 20260905202634 | 38 | 172 | 1.6 | 1.6 | 0.00 | 0.00 | 0.00 | 41 | 1010.7 |
| 20260905202129 | 37 | 172 | 0.0 | 1.6 | 0.00 | 0.00 | 0.00 | 43 | 1010.6 |
| 20260905201624 | 37 | 178 | 1.6 | 3.2 | 0.00 | 0.00 | 0.00 | 43 | 1010.8 |
| 20260905201124 | 37 | 178 | 0.0 | 1.6 | 0.00 | 0.00 | 0.00 | 43 | 1011.1 |
| 20260905200620 | 36 | 169 | 1.6 | 3.2 | 0.00 | 0.00 | 0.00 | 44 | 1010.9 |
| 20260905200115 | 36 | 168 | 0.0 | 0.0 | 0.00 | 0.00 | 0.00 | 44 | 1011.2 |
| 20260905195613 | 36 | 170 | 3.2 | 3.2 | 0.00 | 0.00 | 0.00 | 42 | 1010.9 |
| 20260905195109 | 37 | 185 | 1.6 | 3.2 | 0.00 | 0.00 | 0.00 | 42 | 1011.1 |
| 20260905194608 | 37 | 165 | 0.0 | 4.8 | 0.00 | 0.00 | 0.00 | 41 | 1011.3 |
| 20260905194108 | 37 | 176 | 1.6 | 4.8 | 0.00 | 0.00 | 0.00 | 40 | 1011.3 |
| 20260905193603 | 37 | 177 | 1.6 | 1.6 | 0.00 | 0.00 | 0.00 | 41 | 1011.3 |
| 20260905193058 | 36 | 183 | 1.6 | 1.6 | 0.00 | 0.00 | 0.00 | 41 | 1011.3 |
| 20260905192554 | 37 | 186 | 4.8 | 8.0 | 0.00 | 0.00 | 0.00 | 42 | 1011.4 |
| 20260905192050 | 36 | 184 | 1.6 | 3.2 | 0.00 | 0.00 | 0.00 | 41 | 1011.4 |
| 20260905191548 | 36 | 183 | 0.0 | 1.6 | 0.00 | 0.00 | 0.00 | 41 | 1011.6 |
| 20260905191047 | 36 | 176 | 0.0 | 1.6 | 0.00 | 0.00 | 0.00 | 45 | 1011.8 |
| 20260905190540 | 36 | 189 | 1.6 | 3.2 | 0.00 | 0.00 | 0.00 | 44 | 1011.8 |
| 20260905190039 | 36 | 91 | 1.6 | 4.8 | 0.00 | 0.00 | 0.00 | 46 | 1011.9 |
| 20260905185538 | 36 | 172 | 0.0 | 1.6 | 0.00 | 0.00 | 0.00 | 48 | 1012.0 |
| 20260905185032 | 36 | 183 | 1.6 | 1.6 | 0.00 | 0.00 | 0.00 | 45 | 1012.1 |
| 20260905184527 | 35 | 194 | 3.2 | 4.8 | 0.00 | 0.00 | 0.00 | 47 | 1012.2 |
| 20260905184025 | 35 | 188 | 0.0 | 1.6 | 0.00 | 0.00 | 0.00 | 47 | 1012.2 |
| 20260905183525 | 35 | 203 | 3.2 | 4.8 | 0.00 | 0.00 | 0.00 | 48 | 1012.1 |
| 20260905183021 | 34 | 127 | 0.0 | 1.6 | 0.00 | 0.00 | 0.00 | 49 | 1012.3 |
| 20260905182520 | 33 | 103 | 1.6 | 1.6 | 0.00 | 0.00 | 0.00 | 49 | 1012.4 |
| 20260905182015 | 34 | 96 | 1.6 | 3.2 | 0.00 | 0.00 | 0.00 | 49 | 1012.5 |
| 20260905181510 | 35 | 178 | 0.0 | 3.2 | 0.00 | 0.00 | 0.00 | 46 | 1012.4 |
| 20260905181009 | 35 | 195 | 3.2 | 4.8 | 0.00 | 0.00 | 0.00 | 47 | 1012.5 |
| 20260905180504 | 34 | 157 | 0.0 | 1.6 | 0.00 | 0.00 | 0.00 | 49 | 1012.6 |
| 20260905180000 | 35 | 166 | 0.0 | 1.6 | 0.00 | 0.00 | 0.00 | 50 | 1012.5 |
| 20260905175458 | 34 | 184 | 4.8 | 4.8 | 0.00 | 0.00 | 0.00 | 49 | 1012.6 |
| 20260905174954 | 34 | 156 | 1.6 | 1.6 | 0.00 | 0.00 | 0.00 | 50 | 1012.7 |
| 20260905174449 | 35 | 156 | 0.0 | 1.6 | 0.00 | 0.00 | 0.00 | 48 | 1012.8 |
| 20260905173945 | 35 | 156 | 0.0 | 3.2 | 0.00 | 0.00 | 0.00 | 48 | 1012.9 |
| 20260905173441 | 35 | 186 | 0.0 | 3.2 | 0.00 | 0.00 | 0.00 | 49 | 1012.9 |
| 20260905172937 | 34 | 153 | 0.0 | 1.6 | 0.00 | 0.00 | 0.00 | 51 | 1013.0 |
| 20260905172435 | 35 | 99 | 0.0 | 3.2 | 0.00 | 0.00 | 0.00 | 48 | 1013.1 |
| 20260905171931 | 35 | 86 | 3.2 | 11.3 | 0.00 | 0.00 | 0.00 | 49 | 1013.0 |
| 20260905171427 | 35 | 120 | 0.0 | 3.2 | 0.00 | 0.00 | 0.00 | 49 | 1013.0 |
| 20260905170923 | 34 | 121 | 0.0 | 4.8 | 0.00 | 0.00 | 0.00 | 51 | 1013.0 |
| 20260905170418 | 34 | 82 | 3.2 | 3.2 | 0.00 | 0.00 | 0.00 | 52 | 1013.1 |
| 20260905165917 | 35 | 74 | 4.8 | 9.7 | 0.00 | 0.00 | 0.00 | 51 | 1013.2 |
| 20260905165413 | 33 | 130 | 1.6 | 3.2 | 0.00 | 0.00 | 0.00 | 51 | 1013.2 |
| 20260905164908 | 34 | 169 | 1.6 | 9.7 | 0.00 | 0.00 | 0.00 | 51 | 1013.4 |
| 20260905164403 | 35 | 101 | 3.2 | 3.2 | 0.00 | 0.00 | 0.00 | 51 | 1013.5 |
| 20260905163858 | 35 | 206 | 4.8 | 8.0 | 0.00 | 0.00 | 0.00 | 50 | 1013.4 |
| 20260905163355 | 33 | 83 | 1.6 | 3.2 | 0.00 | 0.00 | 0.00 | 53 | 1013.7 |
| 20260905162850 | 33 | 83 | 0.0 | 4.8 | 0.00 | 0.00 | 0.00 | 54 | 1013.5 |
| 20260905162350 | 34 | 96 | 3.2 | 3.2 | 0.00 | 0.00 | 0.00 | 53 | 1013.6 |
| 20260905161845 | 34 | 125 | 1.6 | 3.2 | 0.00 | 0.00 | 0.00 | 51 | 1013.7 |
| 20260905161344 | 33 | 195 | 0.0 | 3.2 | 0.00 | 0.00 | 0.00 | 54 | 1013.9 |
| 20260905160843 | 33 | 177 | 3.2 | 8.0 | 0.00 | 0.00 | 0.00 | 53 | 1013.9 |
| 20260905160337 | 33 | 188 | 1.6 | 3.2 | 0.00 | 0.00 | 0.00 | 54 | 1014.1 |
| 20260905155831 | 32 | 112 | 3.2 | 3.2 | 0.00 | 0.00 | 0.00 | 56 | 1013.8 |
| 20260905155330 | 32 | 93 | 1.6 | 3.2 | 0.00 | 0.00 | 0.00 | 56 | 1014.0 |
| 20260905154825 | 32 | 182 | 4.8 | 4.8 | 0.00 | 0.00 | 0.00 | 58 | 1014.2 |
| 20260905154320 | 32 | 87 | 1.6 | 3.2 | 0.00 | 0.00 | 0.00 | 58 | 1014.3 |
| 20260905153815 | 32 | 94 | 0.0 | 1.6 | 0.00 | 0.00 | 0.00 | 58 | 1014.1 |
| 20260905153312 | 32 | 176 | 4.8 | 4.8 | 0.00 | 0.00 | 0.00 | 59 | 1014.1 |
| 20260905152811 | 32 | 85 | 1.6 | 1.6 | 0.00 | 0.00 | 0.00 | 60 | 1014.3 |
| 20260905152310 | 32 | 138 | 0.0 | 1.6 | 0.00 | 0.00 | 0.00 | 60 | 1014.3 |
| 20260905151806 | 31 | 156 | 0.0 | 1.6 | 0.00 | 0.00 | 0.00 | 62 | 1014.4 |
| 20260905151302 | 31 | 158 | 0.0 | 3.2 | 0.00 | 0.00 | 0.00 | 63 | 1014.2 |
| 20260905150802 | 31 | 165 | 0.0 | 1.6 | 0.00 | 0.00 | 0.00 | 64 | 1014.1 |
| 20260905150301 | 31 | 189 | 3.2 | 4.8 | 0.00 | 0.00 | 0.00 | 63 | 1014.1 |
| 20260905145758 | 30 | 193 | 3.2 | 4.8 | 0.00 | 0.00 | 0.00 | 63 | 1014.2 |
| 20260905145253 | 30 | 175 | 1.6 | 4.8 | 0.00 | 0.00 | 0.00 | 65 | 1014.3 |
| 20260905144752 | 30 | 179 | 0.0 | 0.0 | 0.00 | 0.00 | 0.00 | 67 | 1014.2 |
| 20260905144248 | 30 | 184 | 3.2 | 3.2 | 0.00 | 0.00 | 0.00 | 67 | 1014.3 |
| 20260905143746 | 30 | 107 | 0.0 | 1.6 | 0.00 | 0.00 | 0.00 | 67 | 1014.4 |
| 20260905143241 | 30 | 92 | 0.0 | 1.6 | 0.00 | 0.00 | 0.00 | 67 | 1014.4 |
| 20260905142739 | 29 | 158 | 0.0 | 1.6 | 0.00 | 0.00 | 0.00 | 69 | 1014.3 |
| 20260905142234 | 29 | 159 | 1.6 | 1.6 | 0.00 | 0.00 | 0.00 | 69 | 1014.3 |
| 20260905141730 | 28 | 188 | 0.0 | 1.6 | 0.00 | 0.00 | 0.00 | 70 | 1014.4 |
| 20260905141226 | 28 | 239 | 3.2 | 4.8 | 0.00 | 0.00 | 0.00 | 70 | 1014.7 |
| 20260905140720 | 28 | 167 | 0.0 | 1.6 | 0.00 | 0.00 | 0.00 | 71 | 1014.6 |
| 20260905140215 | 28 | 175 | 3.2 | 4.8 | 0.00 | 0.00 | 0.00 | 73 | 1014.6 |
| 20260905135709 | 28 | 178 | 0.0 | 1.6 | 0.00 | 0.00 | 0.00 | 74 | 1014.7 |
| 20260905135205 | 27 | 144 | 0.0 | 0.0 | 0.00 | 0.00 | 0.00 | 75 | 1014.6 |
| 20260905134704 | 27 | 157 | 0.0 | 3.2 | 0.00 | 0.00 | 0.00 | 76 | 1014.8 |
| 20260905134204 | 27 | 154 | 0.0 | 1.6 | 0.00 | 0.00 | 0.00 | 78 | 1014.7 |
| 20260905133659 | 26 | 158 | 0.0 | 0.0 | 0.00 | 0.00 | 0.00 | 79 | 1014.6 |
| 20260905133154 | 26 | 157 | 0.0 | 0.0 | 0.00 | 0.00 | 0.00 | 81 | 1014.9 |
| 20260905132653 | 26 | 157 | 0.0 | 0.0 | 0.00 | 0.00 | 0.00 | 81 | 1014.9 |
| 20260905132148 | 25 | 158 | 0.0 | 3.2 | 0.00 | 0.00 | 0.00 | 83 | 1014.9 |
| 20260905131643 | 25 | 157 | 0.0 | 0.0 | 0.00 | 0.00 | 0.00 | 86 | 1014.8 |
| 20260905131138 | 25 | 157 | 0.0 | 0.0 | 0.00 | 0.00 | 0.00 | 88 | 1014.8 |
| 20260905130632 | 24 | 157 | 0.0 | 0.0 | 0.00 | 0.00 | 0.00 | 89 | 1015.0 |
| 20260905130133 | 23 | 158 | 0.0 | 0.0 | 0.00 | 0.00 | 0.00 | 90 | 1015.1 |
| 20260905125626 | 23 | 158 | 0.0 | 0.0 | 0.00 | 0.00 | 0.00 | 90 | 1014.8 |
| 20260905125123 | 23 | 158 | 0.0 | 0.0 | 0.00 | 0.00 | 0.00 | 90 | 1014.8 |
| 20260905124619 | 23 | 158 | 0.0 | 0.0 | 0.00 | 0.00 | 0.00 | 91 | 1014.9 |
| 20260905124115 | 23 | 157 | 0.0 | 0.0 | 0.00 | 0.00 | 0.00 | 91 | 1014.9 |
| 20260905123609 | 23 | 157 | 0.0 | 0.0 | 0.00 | 0.00 | 0.00 | 91 | 1014.8 |